CES2999 UACC-ZSHC

Flight info

Callsign CES2999
Flight time N/A
Altitude FL390
Route BANOS W333 KRG W348 AGZ M166 SARIN A368 FKG W192 LUPRO V116 ESDEX W191 DNC JIG W214 HO LIMGI PASGU W638 KAMDA W128 FYG B208 HFE R343 SASAN
Aircraft A321/M-S/N

Departure

Time 2026-04-28 12:35
Airport Nursultan Nazarbayev International Airport (UACC)

Arrival

Time N/A
Airport Hangzhou Xiaoshan International Airport (ZSHC)
Time Latitude Longitude Altitude Speed Heading
2026-04-28 11:51 51.01694 71.44813 1161 ft 0 kts 134°
2026-04-28 12:02 51.01693 71.44815 1161 ft 2 kts 134°
2026-04-28 12:02 51.01680 71.44837 1161 ft 1 kts 133°
2026-04-28 12:02 51.01680 71.44838 1161 ft 0 kts 133°
2026-04-28 12:05 51.01679 71.44838 1161 ft 1 kts 132°
2026-04-28 12:05 51.01666 71.44864 1161 ft 2 kts 132°
2026-04-28 12:06 51.01661 71.44886 1162 ft 3 kts 104°
2026-04-28 12:06 51.01658 71.44902 1162 ft 1 kts 109°
2026-04-28 12:06 51.01657 71.44905 1162 ft 0 kts 108°
2026-04-28 12:22 51.01657 71.44906 1162 ft 0 kts 108°
2026-04-28 12:25 51.01656 71.44911 1162 ft 0 kts 109°
2026-04-28 12:25 51.01654 71.44917 1163 ft 1 kts 114°
2026-04-28 12:25 51.01649 71.44931 1163 ft 4 kts 123°
2026-04-28 12:26 51.01629 71.44968 1164 ft 4 kts 132°
2026-04-28 12:26 51.01607 71.45007 1164 ft 5 kts 133°
2026-04-28 12:26 51.01583 71.45049 1165 ft 5 kts 123°
2026-04-28 12:26 51.01581 71.45097 1166 ft 4 kts 65°
2026-04-28 12:27 51.01600 71.45136 1167 ft 5 kts 45°
2026-04-28 12:27 51.01623 71.45174 1167 ft 5 kts 44°
2026-04-28 12:27 51.01655 71.45222 1167 ft 7 kts 44°
2026-04-28 12:27 51.01697 71.45289 1167 ft 10 kts 44°
2026-04-28 12:28 51.01749 71.45371 1167 ft 11 kts 44°
2026-04-28 12:28 51.01809 71.45464 1167 ft 13 kts 44°
2026-04-28 12:28 51.01875 71.45566 1169 ft 13 kts 44°
2026-04-28 12:28 51.01942 71.45671 1169 ft 14 kts 43°
2026-04-28 12:29 51.02105 71.45923 1167 ft 17 kts 44°
2026-04-28 12:29 51.02193 71.46062 1167 ft 18 kts 44°
2026-04-28 12:29 51.02285 71.46205 1167 ft 18 kts 44°
2026-04-28 12:30 51.02380 71.46352 1167 ft 19 kts 44°
2026-04-28 12:30 51.02477 71.46504 1167 ft 19 kts 44°
2026-04-28 12:30 51.02575 71.46656 1169 ft 19 kts 44°
2026-04-28 12:30 51.02671 71.46807 1168 ft 20 kts 44°
2026-04-28 12:31 51.02774 71.46968 1167 ft 21 kts 44°
2026-04-28 12:31 51.02880 71.47132 1167 ft 21 kts 44°
2026-04-28 12:31 51.02990 71.47308 1164 ft 22 kts 44°
2026-04-28 12:31 51.03104 71.47486 1164 ft 22 kts 44°
2026-04-28 12:32 51.03209 71.47650 1164 ft 21 kts 44°
2026-04-28 12:32 51.03287 71.47773 1164 ft 15 kts 45°
2026-04-28 12:32 51.03354 71.47878 1164 ft 8 kts 44°
2026-04-28 12:32 51.03390 71.47935 1164 ft 6 kts 47°
2026-04-28 12:33 51.03417 71.48001 1164 ft 8 kts 67°
2026-04-28 12:33 51.03424 71.48100 1164 ft 10 kts 89°
2026-04-28 12:33 51.03422 71.48221 1164 ft 12 kts 96°
2026-04-28 12:33 51.03395 71.48302 1164 ft 9 kts 137°
2026-04-28 12:34 51.03352 71.48318 1164 ft 7 kts 200°
2026-04-28 12:34 51.03308 71.48263 1164 ft 9 kts 224°
2026-04-28 12:34 51.03217 71.48120 1164 ft 48 kts 224°
2026-04-28 12:34 51.02740 71.47377 1164 ft 135 kts 224°
2026-04-28 12:35 51.01912 71.46061 1387 ft 184 kts 225°
2026-04-28 12:35 51.00997 71.44576 2239 ft 190 kts 225°
2026-04-28 12:35 51.00104 71.43125 3384 ft 182 kts 225°
2026-04-28 12:35 50.99204 71.41671 4166 ft 190 kts 225°
2026-04-28 12:36 50.98219 71.40079 4789 ft 208 kts 225°
2026-04-28 12:36 50.97155 71.38332 5421 ft 226 kts 229°
2026-04-28 12:36 50.96328 71.36011 5919 ft 252 kts 245°
2026-04-28 12:36 50.95339 71.33601 6568 ft 270 kts 223°
2026-04-28 12:37 50.93706 71.32075 7422 ft 279 kts 195°
2026-04-28 12:37 50.91781 71.31882 8407 ft 282 kts 169°
2026-04-28 12:37 50.89967 71.33087 9377 ft 285 kts 142°
2026-04-28 12:37 50.88554 71.35334 10355 ft 288 kts 130°
2026-04-28 12:38 50.87241 71.37822 11097 ft 300 kts 129°
2026-04-28 12:38 50.85844 71.40516 11629 ft 320 kts 129°
2026-04-28 12:38 50.84363 71.43356 12129 ft 339 kts 129°
2026-04-28 12:38 50.82796 71.46342 12587 ft 358 kts 129°
2026-04-28 12:39 50.81140 71.49484 12999 ft 377 kts 129°
2026-04-28 12:39 50.79390 71.52787 13352 ft 396 kts 129°
2026-04-28 12:39 50.77559 71.56234 13795 ft 410 kts 129°
2026-04-28 12:39 50.75683 71.59762 14534 ft 415 kts 129°